Biloxi, MS

5:24 AM CDT on September 26, 2017 (GMT -0500)
Keesler Air Force Base

Weather History for KBIX - March, 2013

Change the Weather History Date:

Sunday, March 3, 2013

  Actual Average Record
Temperature  
Mean Temperature 42 °F -  
Max Temperature 55 °F 66 °F 78 °F (1951)
Min Temperature 30 °F 52 °F 23 °F (1980)
Degree Days  
Heating Degree Days 22    
Moisture  
Dew Point 25 °F    
Average Humidity 53    
Maximum Humidity 79    
Minimum Humidity 24    
Precipitation  
Precipitation 0.00 in - - ()
Sea Level Pressure  
Sea Level Pressure 30.21 in    
Wind  
Wind Speed 7 mph (NW)    
Max Wind Speed 12 mph    
Max Gust Speed -    
Visibility 10 miles    
Events      
Averages and records for this station are not official NWS values.
T = Trace of Precipitation, MM = Missing Value Source: NWS Daily Summary

Daily Weather History Graph

Daily Weather History Graph

Search for Another Location

Airport or City:

Trip Planner

Search our weather history database for the weather conditions in past years. The results will help you decide how hot, cold, wet, or windy it might be!

Date:

Astronomy

Mar. 03, 2013 Rise Set
Actual Time 6:19 AM CST 5:56 PM CST
Civil Twilight 5:55 AM CST 6:20 PM CST
Nautical Twilight 5:27 AM CST 6:48 PM CST
Astronomical Twilight 4:59 AM CST 7:15 PM CST
Moon No Moon Rise 10:01 AM CST (3/3)
Length of Visible Light 12h 24m
Length of Day
11h 36m
Waning Gibbous, 63% of the Moon is Illuminated
Mar 3
Waning Gibbous
Mar 4
Last Quarter
Mar 11
New
Mar 19
First Quarter
Mar 27
Full

Hourly Weather History & Observations

Time (CST) Temp. Windchill Dew Point Humidity Pressure Visibility Wind Dir Wind Speed Gust Speed Precip Events Conditions
12:58 AM 35.6 °F 29.2 °F 23.0 °F 60% 30.24 in 10.0 mi North 8.1 mph - N/A   Clear
1:58 AM 34.2 °F 28.2 °F 24.3 °F 67% 30.22 in 10.0 mi NW 6.9 mph - N/A   Clear
2:58 AM 33.1 °F 26.9 °F 24.4 °F 71% 30.21 in 10.0 mi NW 6.9 mph - N/A   Clear
3:58 AM 31.6 °F 26.0 °F 25.0 °F 76% 30.21 in 10.0 mi NW 5.8 mph - N/A   Clear
4:58 AM 30.9 °F 22.8 °F 24.8 °F 78% 30.23 in 10.0 mi NW 9.2 mph - N/A   Clear
5:58 AM 30.4 °F 21.5 °F 24.6 °F 79% 30.24 in 10.0 mi NNW 10.4 mph - N/A   Clear
6:58 AM 30.6 °F 22.4 °F 24.1 °F 77% 30.25 in 10.0 mi NNW 9.2 mph - N/A   Clear
7:58 AM 33.8 °F 25.3 °F 23.0 °F 65% 30.28 in 10.0 mi NNW 11.5 mph - N/A   Clear
8:58 AM 37.4 °F 30.3 °F 22.8 °F 56% 30.28 in 10.0 mi North 10.4 mph - N/A   Clear
9:58 AM 40.8 °F 35.0 °F 21.7 °F 47% 30.27 in 10.0 mi North 9.2 mph - N/A   Clear
10:58 AM 44.6 °F 39.2 °F 19.4 °F 37% 30.26 in 10.0 mi NW 10.4 mph - N/A   Clear
11:58 AM 47.3 °F - 18.9 °F 32% 30.22 in 10.0 mi NW 10.4 mph - N/A   Clear
12:58 PM 50.2 °F - 18.1 °F 28% 30.19 in 10.0 mi NNW 8.1 mph - N/A   Clear
1:58 PM 52.9 °F - 18.3 °F 26% 30.17 in 10.0 mi NNW 10.4 mph - N/A   Clear
2:58 PM 54.9 °F - 18.9 °F 24% 30.17 in 10.0 mi WNW 9.2 mph - N/A   Clear
3:58 PM 55.9 °F - 21.0 °F 26% 30.16 in 10.0 mi NW 4.6 mph - N/A   Clear
4:58 PM 55.2 °F - 20.1 °F 25% 30.16 in 10.0 mi Variable 2.3 mph - N/A   Clear
5:58 PM 52.0 °F - 27.0 °F 38% 30.16 in 10.0 mi Variable 2.3 mph - N/A   Clear
6:58 PM 48.0 °F - 28.9 °F 48% 30.18 in 10.0 mi Calm Calm - N/A   Clear
7:58 PM 47.3 °F - 32.2 °F 56% 30.19 in 10.0 mi West 2.3 mph - N/A   Clear
8:58 PM 45.7 °F - 31.8 °F 58% 30.20 in 10.0 mi West 2.3 mph - N/A   Clear
9:58 PM 44.1 °F - 32.0 °F 63% 30.20 in 10.0 mi Calm Calm - N/A   Clear
10:58 PM 45.5 °F 42.5 °F 33.6 °F 63% 30.18 in 10.0 mi WSW 5.8 mph - N/A   Clear
11:58 PM 46.9 °F - 39.2 °F 74% 30.17 in 10.0 mi SW 9.2 mph - N/A   Clear